Weather History for Owensboro, KY

Change the Weather History Date:

Thursday, November 21, 2013

  Actual Average Record
Temperature  
Mean Temperature 52 °F -  
Max Temperature 59 °F 54 °F 77 °F (1942)
Min Temperature 45 °F 35 °F 15 °F (1937)
Degree Days  
Heating Degree Days 13    
Growing Degree Days 2 (Base 50)    
Moisture  
Dew Point 46 °F    
Average Humidity 77    
Maximum Humidity 100    
Minimum Humidity 63    
Precipitation  
Precipitation 0.03 in - - ()
Sea Level Pressure  
Sea Level Pressure 30.22 in    
Wind  
Wind Speed 9 mph (SSE)    
Max Wind Speed 16 mph    
Max Gust Speed -    
Visibility 10 miles    
Events Rain    
Averages and records for this station are not official NWS values.
T = Trace of Precipitation, MM = Missing Value Source: NWS Daily Summary

Daily Weather History Graph

Daily Weather History Graph

Search for Another Location

Airport:

Trip Planner

Search our weather history database for the weather conditions in past years. The results will help you decide how hot, cold, wet, or windy it might be!

Date:

Astronomy

Nov. 21, 2013 Rise Set
Actual Time 6:35 AM CST 4:33 PM CST
Civil Twilight 6:07 AM CST 5:01 PM CST
Nautical Twilight 5:35 AM CST 5:33 PM CST
Astronomical Twilight 5:03 AM CST 6:05 PM CST
Moon 8:09 PM CST (11/21) 9:41 AM CST (11/21)
Length of Visible Light 10h 54m
Length of Day
9h 58m
Waning Gibbous, 85% of the Moon is Illuminated
Nov 21
Waning Gibbous
Nov 25
Last Quarter
Dec 2
New
Dec 9
First Quarter
Dec 17
Full

Hourly Weather History & Observations

Time (CST) Temp. Windchill Dew Point Humidity Pressure Visibility Wind Dir Wind Speed Gust Speed Precip Events Conditions
12:56 AM 45.9 °F 41.2 °F 34.0 °F 63% 30.20 in 10.0 mi SSE 9.2 mph - N/A   Clear
1:56 AM 45.9 °F 42.9 °F 36.0 °F 68% 30.23 in 10.0 mi South 5.8 mph - N/A   Clear
2:56 AM 46.9 °F - 36.0 °F 66% 30.23 in 10.0 mi South 8.1 mph - N/A   Clear
3:56 AM 46.9 °F - 36.0 °F 66% 30.22 in 10.0 mi South 9.2 mph - N/A   Clear
4:56 AM 46.9 °F - 36.9 °F 68% 30.22 in 10.0 mi South 12.7 mph - N/A   Clear
5:56 AM 46.9 °F - 37.9 °F 71% 30.24 in 10.0 mi South 12.7 mph - N/A   Clear
6:56 AM 45.9 °F 41.7 °F 39.9 °F 80% 30.25 in 10.0 mi South 8.1 mph - N/A   Clear
7:56 AM 47.8 °F - 41.0 °F 77% 30.26 in 10.0 mi SSE 8.1 mph - N/A   Clear
8:56 AM 52.9 °F - 43.9 °F 71% 30.26 in 10.0 mi South 16.1 mph - N/A   Scattered Clouds
9:56 AM 55.9 °F - 45.0 °F 67% 30.27 in 10.0 mi South 13.8 mph - N/A   Clear
10:56 AM 59.9 °F - 47.8 °F 64% 30.24 in 10.0 mi South 15.0 mph - N/A   Clear
11:56 AM 57.9 °F - 47.8 °F 69% 30.20 in 10.0 mi South 15.0 mph - N/A   Clear
12:56 PM 59.0 °F - 46.9 °F 64% 30.19 in 10.0 mi South 11.5 mph - N/A   Clear
1:56 PM 59.9 °F - 48.9 °F 67% 30.19 in 10.0 mi SSW 8.1 mph - N/A   Scattered Clouds
2:56 PM 59.0 °F - 50.0 °F 72% 30.19 in 10.0 mi South 6.9 mph - 0.00 in Rain Light Rain
3:56 PM 59.0 °F - 50.0 °F 72% 30.21 in 10.0 mi Calm Calm - 0.00 in   Mostly Cloudy
4:56 PM 56.8 °F - 50.0 °F 78% 30.20 in 9.0 mi ESE 5.8 mph - 0.00 in Rain Light Rain
5:56 PM 54.0 °F - 52.9 °F 96% 30.20 in 6.0 mi SE 5.8 mph - 0.02 in Rain Light Rain
6:56 PM 54.0 °F - 52.0 °F 93% 30.20 in 10.0 mi South 4.6 mph - 0.00 in   Mostly Cloudy
7:56 PM 52.9 °F - 52.9 °F 100% 30.21 in 10.0 mi Calm Calm - 0.01 in Rain Light Rain
8:56 PM 54.0 °F - 52.9 °F 96% 30.20 in 10.0 mi SE 3.5 mph - 0.00 in   Overcast
9:56 PM 54.9 °F - 52.9 °F 93% 30.19 in 10.0 mi SSE 6.9 mph - 0.00 in   Overcast
10:56 PM 54.9 °F - 52.9 °F 93% 30.19 in 10.0 mi SSE 6.9 mph - N/A   Overcast
11:56 PM 54.9 °F - 54.0 °F 97% 30.20 in 10.0 mi South 3.5 mph - N/A   Overcast